Location: Wien
(48.2082°N, 16.3738°E)
Time: 11:18:51
(UTC+01:00)

Transit 4A - Visible Passes

Search period start: 22 February 2024 00:00
Search period end: 03 March 2024 00:00
Orbit: 869 x 974 km, 66.8° (Epoch: 21 February)

Date Brightness Start Highest point End Pass type
(mag) Time Alt. Az. Time Alt. Az. Time Alt. Az.
22 Feb 9.6 02:51:48 27° NNE 02:51:48 27° NNE 02:54:28 10° NNE visible
22 Feb 9.3 04:35:18 21° NW 04:35:54 21° NNW 04:40:24 10° NNE visible
23 Feb 9.5 03:00:38 28° NNE 03:00:38 28° NNE 03:03:29 10° NNE visible
23 Feb 9.5 04:44:07 17° NW 04:45:25 18° NNW 04:49:23 10° NNE visible
24 Feb 10.6 01:25:57 11° NE 01:25:57 11° NE 01:26:12 10° NE visible
24 Feb 9.4 03:09:26 27° N 03:09:26 27° N 03:12:30 10° NNE visible
24 Feb 9.7 04:52:55 13° NW 04:55:01 15° NNW 04:58:27 10° NNE visible
25 Feb 10.5 01:34:44 13° NE 01:34:44 13° NE 01:35:23 10° NE visible
25 Feb 9.5 03:18:12 25° N 03:18:12 25° N 03:21:28 10° NNE visible
25 Feb 9.9 05:01:42 10° NW 05:04:39 14° NNW 05:07:37 10° NNE visible
26 Feb 10.4 01:43:29 15° NNE 01:43:29 15° NNE 01:44:29 10° NE visible
26 Feb 9.5 03:26:58 22° NNW 03:26:58 22° NNW 03:30:27 10° NNE visible
26 Feb 10.0 05:11:40 10° NNW 05:14:19 13° N 05:16:54 10° NNE visible
27 Feb 10.2 01:52:13 17° NNE 01:52:13 17° NNE 01:53:32 10° NNE visible
27 Feb 9.6 03:35:42 20° NNW 03:35:42 20° NNW 03:39:27 10° NNE visible
27 Feb 10.0 05:21:30 10° NNW 05:23:59 13° N 05:26:27 10° NNE visible
28 Feb 10.1 02:00:56 19° NNE 02:00:56 19° NNE 02:02:33 10° NNE visible
28 Feb 9.7 03:44:25 17° NNW 03:44:40 17° NNW 03:48:28 10° NNE visible
28 Feb 10.0 05:31:03 10° NNW 05:33:40 13° N 05:36:15 10° NNE visible
29 Feb 10.0 02:09:39 19° NNE 02:09:39 19° NNE 02:11:32 10° NNE visible
29 Feb 9.9 03:53:07 14° NNW 03:54:16 15° NNW 03:57:32 10° NNE visible
29 Feb 10.0 05:40:23 10° NNW 05:43:19 14° NNE 05:46:15 10° NE visible
01 Mar 10.0 02:18:20 19° N 02:18:20 19° N 02:20:31 10° NNE visible
01 Mar 10.0 04:01:48 11° NNW 04:03:55 13° N 04:06:43 10° NNE visible
01 Mar 10.0 05:49:32 10° NNW 05:52:57 15° NNE 05:56:20 10° NE visible
02 Mar 10.7 00:43:31 10° NNE 00:43:31 10° NNE 00:43:34 10° NNE visible
02 Mar 9.9 02:26:59 19° N 02:26:59 19° N 02:29:31 10° NNE visible
02 Mar 10.1 04:11:03 10° NNW 04:13:35 13° N 04:16:06 10° NNE visible
02 Mar 10.0 05:58:35 10° NNW 06:02:32 18° NNE 06:06:24 10° ENE visible
